This demonstration page uses our WeatherBlox Daily Observations layout. Learn more.

Left ArrowRight Arrow

41.12389, -100.76542

Hourly Observations for September 8, 2016

Temp ( °F °C ) Dew Point ( °F °C ) Humidity (%) Winds ( mph kmh ) Pressure ( in mb ) Visibility ( mi km ) Precip ( " mm )
12:53 am 00:53 Clear 63 17.2 57 13.9 81 81 Calm 29.97 1015 10 16 0.00 0.00
1:53 am 01:53 Clear 62 16.7 53 11.7 73 73 NE 7 11 29.96 1014 10 16 0.00 0.00
2:53 am 02:53 Clear 60 15.6 53 11.7 78 78 E 5 7 29.95 1014 10 16 0.00 0.00
3:53 am 03:53 Clear 60 15.6 52 11.1 75 75 Calm 29.95 1014 10 16 0.00 0.00
4:53 am 04:53 Clear 58 14.4 51 10.6 78 78 Calm 29.96 1015 10 16 0.00 0.00
5:53 am 05:53 Clear 57 13.9 51 10.6 81 81 Calm 29.96 1015 10 16 0.00 0.00
6:53 am 06:53 Clear 54 12.2 51 10.6 90 90 Calm 29.98 1015 10 16 0.00 0.00
7:53 am 07:53 Sunny 55 12.8 52 11.1 90 90 NE 7 11 29.99 1016 10 16 0.00 0.00
8:53 am 08:53 Sunny 61 16.1 53 11.7 75 75 E 7 11 29.99 1016 10 16 0.00 0.00
9:53 am 09:53 Sunny 66 18.9 56 13.3 70 70 ESE 16 26 29.98 1015 10 16 0.00 0.00
10:53 am 10:53 Sunny 71 21.7 57 13.9 61 61 SE 14 22 29.98 1015 10 16 0.00 0.00
11:53 am 11:53 Sunny 73 22.8 58 14.4 59 59 SE 10 17 29.95 1014 10 16 0.00 0.00
12:53 pm 12:53 Mostly Sunny 78 25.6 60 15.6 54 54 ESE 12 19 29.91 1013 10 16 0.00 0.00
1:53 pm 13:53 Sunny 83 28.3 61 16.1 48 48 SSE 8 13 29.88 1012 10 16 0.00 0.00
2:53 pm 14:53 Mostly Cloudy 84 28.9 63 17.2 49 49 SSW 13 20 29.86 1011 10 16 0.00 0.00
3:53 pm 15:53 Mostly Sunny 84 28.9 62 16.7 48 48 S 12 19 29.84 1011 10 16 0.00 0.00
4:53 pm 16:53 Mostly Sunny 82 27.8 63 17.2 53 53 S 12 19 29.83 1010 10 16 0.00 0.00
5:53 pm 17:53 Sunny 81 27.2 62 16.7 53 53 SSW 9 15 29.82 1010 10 16 0.00 0.00
6:53 pm 18:53 Cloudy 79 26.1 65 18.3 62 62 S 8 13 29.82 1010 10 16 0.00 0.00
7:53 pm 19:53 Sunny 75 23.9 66 18.9 74 74 SSE 9 15 29.80 1009 10 16 0.00 0.00
8:53 pm 20:53 Clear 71 21.7 66 18.9 84 84 SSE 6 9 29.81 1010 10 16 0.00 0.00
9:53 pm 21:53 Clear 67 19.4 64 17.8 91 91 ESE 5 7 29.81 1010 9 14 0.00 0.00
10:53 pm 22:53 Partly Cloudy with Mist and Fog 67 19.4 65 18.3 93 93 SE 5 7 29.80 1009 6 10 0.00 0.00
11:03 pm 23:03 Mostly Cloudy with Mist and Fog 68 20 66 19 94 94 SE 5 7 29.77 1008 6 10 0.00 0.00
11:53 pm 23:53 Cloudy with Mist and Fog 71 21.7 68 20 90 90 SSE 8 13 29.80 1009 5 8 0.00 0.00

Powered by AerisWeather